Lexington Weather

Lexington, Massachusetts, USA

74°F
8/7/2020 11:45am 
  • Lexington Conditions: Clear
  • Temperature: 73.6°F / 23.1°CWarmer 2.5°F than last hour.
  • Dew Point: 64.0°FIncreased 0.5°Fsince last hour.
  • Relative Humidity: 72%Decreased 5.0% since last hour.
  • Wind: Calm, 10-min avg: Calm, gust: 2 mph
  • Barometer: 30.13 inFalling 0.02  inHg/hr Falling Slowly
  • Visibility: 10 miles
  • Rain Today: 0.00 in
  •   

Regional Weather Roundup
for Boston / Norton, MA

        
000
ASUS41 KBOX 041904
RWRBOX

REGIONAL WEATHER ROUNDUP
NATIONAL WEATHER SERVICE BOSTON/NORTON MA
300 PM EDT TUE AUG 04 2020

NOTE:  "FAIR" INDICATES FEW OR NO CLOUDS BELOW 12,000 FEET WITH NO 
SIGNIFICANT WEATHER AND/OR OBSTRUCTIONS TO VISIBILITY.

MAZALL-042000-
EASTERN MASSACHUSETTS
  
CITY           SKY/WX    TMP DP  RH WIND       PRES   REMARKS
BOSTON         CLOUDY    76  68  76 SE17      29.91F                  
BEVERLY        CLOUDY    79  73  82 SE16G26   29.92F                  
LAWRENCE       CLOUDY    80  73  79 E10G24    29.93F                  
BEDFORD        CLOUDY    85  70  60 SE25G31   29.87F                  
BLUE HILL        N/A     81  69  67 SE20G33   29.90F                  
NORWOOD        CLOUDY    85  71  63 SE15G31   29.88F HX  90           
MARSHFIELD     CLOUDY    79  72  78 SE13G21   29.93F                  
PLYMOUTH       CLOUDY    83  72  69 SE20G38   29.94F                  
TAUNTON        CLOUDY    84  73  69 SE17G28   29.89F HX  90           
NEW BEDFORD    CLOUDY    82  74  76 SE24G33   29.90F                  
$$

MAZALL-042000-
CAPE COD AND THE ISLANDS
  
CITY           SKY/WX    TMP DP  RH WIND       PRES   REMARKS
FALMOUTH       PTSUNNY   81  73  78 SE17G33   29.97F                  
HYANNIS        PTSUNNY   81  75  82 SE10G23   29.95F                  
CHATHAM        CLOUDY    76  70  82 S13G21    30.01F                  
PROVINCETOWN   CLOUDY    82  75  79 SE14G20   29.99F                  
NANTUCKET      CLOUDY    78  72  81 SE23G31   29.98F                  
MARTHAS VNYRD  CLOUDY    77  73  87 SE21G29   29.93F                  
$$
 
MAZALL-042000-
CENTRAL AND WESTERN MASSACHUSETTS
  
CITY           SKY/WX    TMP DP  RH WIND       PRES   REMARKS
WORCESTER      LGT RAIN  78  70  76 SE21G35   29.86F                  
FITCHBURG      LGT RAIN  81  71  71 SE13G21   29.86F                  
ORANGE         CLOUDY    79  69  71 E23G31    29.81F                  
SPRINGFIELD    LGT RAIN  77  70  78 SE14G26   29.71F                  
WESTFIELD      LGT RAIN  76  72  87 SE14G36   29.69F FOG              
NORTH ADAMS    NOT AVBL                                               
PITTSFIELD     HVY RAIN  72  69  90 E12G33    29.63F VSB 1            
$$
 
RIZALL-042000-
RHODE ISLAND
  
CITY           SKY/WX    TMP DP  RH WIND       PRES   REMARKS
PROVIDENCE     CLOUDY    81  75  82 SE24G36   29.86F                  
NEWPORT        CLOUDY    79  74  84 SE14G24   29.87F HAZE             
BLOCK ISLAND   CLOUDY    79  75  87 SE25G37   29.84F                  
SMITHFIELD     CLOUDY    79  75  87 SE16G29   29.87F                  
WESTERLY       CLOUDY    78  73  84 SE17G30   29.81F                  
$$
 
CTZALL-042000-
CONNECTICUT
  
CITY           SKY/WX    TMP DP  RH WIND       PRES   REMARKS
BRADLEY INTL   LGT RAIN  77  72  84 SE22G38   29.67F                  
HARTFORD       LGT RAIN  79  72  79 SE20G44   29.64F                  
BRIDGEPORT     LGT RAIN  77  69  76 S37G58    29.60F                  
DANBURY        LGT RAIN  73  70  90 S21G40    29.55F FOG              
GROTON         CLOUDY    78  74  87 SE35G47   29.75F                  
NEW HAVEN      CLOUDY   N/A N/A N/A S31G49    29.64F FOG              
CHESTER        PTSUNNY   77  75  94 SE23G37   29.71F FOG              
MERIDEN          N/A     78  72  81 SE23G37   29.64F                  
WILLIMANTIC    CLOUDY    80  72  76 SE20G33   29.76F                  
OXFORD         LGT RAIN  74  73  97 SE29G53   29.60F FOG              
$$

MEZ002-015-021-024-NHZ003-005-008-011-012-014-VTZ005-008-042000-
NORTHERN NEW ENGLAND
  
CITY           SKY/WX    TMP DP  RH WIND       PRES   REMARKS
PORTLAND ME    CLOUDY    73  64  73 E13       30.02F                  
BANGOR ME      CLOUDY    78  64  61 S5        30.10S                  
CONCORD NH     CLOUDY    76  70  82 E8G21     29.91F                  
MANCHESTER NH  CLOUDY    80  73  79 E15G23    29.88F                  
NASHUA NH      CLOUDY    82  77  84 E15G22    29.87F HX  90           
PORTSMOUTH NH  FOG       74  71  92 E13       29.95  VSB 1            
JAFFREY NH     LGT RAIN  74  70  87 VRB5      29.88F                  
KEENE NH       RAIN      75  70  84 VRB5      29.82F                  
BURLINGTON VT  LGT RAIN  71  67  87 SE6       29.92F                  
MT. WASHINGTON FOG       52  52 100 SE33G43     N/A  VSB 0            
$$

NYZ052-076-042000-
EASTERN NEW YORK
  
CITY           SKY/WX    TMP DP  RH WIND       PRES   REMARKS
ALBANY         HVY RAIN  67  67 100 N17G24    29.70F FOG              
NEW YORK CITY  CLOUDY    74  68  81 S17G35    29.46F HAZE             
$$
 
ANZALL-042000-
MARINE OBSERVATIONS
  
STATION/POSITION TIME  TEMP    WIND        PRES    VSBY  WAVE
                       AIR SEA DIR/SP/G                  HT/PER
                 (UTC) (F)     (DEG/KT/KT) (MB)    (MI)  (FT/S)
BOSTON BUOY      1850   74 71  120/ 17/ 21 1012.4F         2/ 3
BUZZARDS BAY     1800          130/ 24/ 26 1014.6F
NANTUCKET SOUND  1840      77  150/ 19/ 25 1014.4F
MASS BAY-STELLWA 1804   73     160/ 12/ 16 1012.9F  1 7/8  2/ 3
ISLE OF SHOALS   1800   72     110/ 17/ 18 1014.9F
S OF BLOCK IS    1826      73                N/A           5/ 5
$$

......................KEY.........................
  SKY/WX - SKY CONDITION/PRESENT WEATHER
  TMP    - TEMPERATURE IN FAHRENHEIT
  DWPT   - DEWPOINT IN FAHRENHEIT
  RH     - RELATIVE HUMIDITY IN PERCENT
  WIND   - DIRECTION AND SPEED IN MPH
  PRES   - MEAN SEA LEVEL PRESSURE IN INCHES OF HG
  WCI    - WIND CHILL INDEX
  VSB    - VISIBILITY IN MILES
  HX     - HEAT INDEX
  TC     - TEMPERATURE IN CELSIUS
  VRB    - VARIABLE WIND DIRECTION
  N/A    - NOT AVAILABLE
  
      

Other recent Regional Weather Roundups

Fri Aug 7, 11:04am

Fri Aug 7, 10:04am

Fri Aug 7, 9:04am

Fri Aug 7, 8:04am

Fri Aug 7, 7:04am

Fri Aug 7, 6:04am

Fri Aug 7, 5:04am

Fri Aug 7, 4:04am

Fri Aug 7, 3:04am

Fri Aug 7, 2:04am

Fri Aug 7, 1:05am

Fri Aug 7, 12:04am

Thu Aug 6, 11:04pm

Thu Aug 6, 10:04pm

Thu Aug 6, 9:04pm

Thu Aug 6, 8:04pm

Thu Aug 6, 7:04pm

Thu Aug 6, 6:04pm

Thu Aug 6, 5:04pm

Thu Aug 6, 4:05pm

Thu Aug 6, 3:04pm

Thu Aug 6, 2:05pm

Thu Aug 6, 1:04pm

Thu Aug 6, 12:04pm

Thu Aug 6, 11:04am

Thu Aug 6, 10:04am

Thu Aug 6, 9:04am

Thu Aug 6, 8:04am

Thu Aug 6, 7:04am

Thu Aug 6, 6:04am

Thu Aug 6, 5:04am

Thu Aug 6, 4:04am

Thu Aug 6, 3:04am

Thu Aug 6, 2:05am

Thu Aug 6, 1:04am

Thu Aug 6, 12:04am

Wed Aug 5, 11:04pm

Wed Aug 5, 10:04pm

Wed Aug 5, 9:04pm

Wed Aug 5, 8:05pm

Wed Aug 5, 7:04pm

Wed Aug 5, 6:04pm

Wed Aug 5, 5:04pm

Wed Aug 5, 4:05pm

Wed Aug 5, 3:04pm

Wed Aug 5, 2:04pm

Wed Aug 5, 1:04pm

Wed Aug 5, 12:04pm

Wed Aug 5, 11:04am

Wed Aug 5, 10:04am

Wed Aug 5, 9:04am

Wed Aug 5, 8:04am

Wed Aug 5, 7:04am

Wed Aug 5, 6:04am

Wed Aug 5, 5:04am

Wed Aug 5, 4:04am

Wed Aug 5, 3:04am

Wed Aug 5, 2:05am

Wed Aug 5, 1:04am

Wed Aug 5, 12:05am

Tue Aug 4, 11:05pm

Tue Aug 4, 10:05pm

Tue Aug 4, 9:04pm

Tue Aug 4, 8:04pm

Tue Aug 4, 7:05pm

Tue Aug 4, 6:05pm

Tue Aug 4, 5:05pm

Tue Aug 4, 4:05pm

Tue Aug 4, 2:05pm

Tue Aug 4, 1:04pm

Tue Aug 4, 12:05pm

Tue Aug 4, 11:04am

Tue Aug 4, 10:04am

Tue Aug 4, 9:04am

Tue Aug 4, 8:04am

Tue Aug 4, 7:04am

Tue Aug 4, 6:04am

Tue Aug 4, 5:04am

Tue Aug 4, 4:04am

Tue Aug 4, 3:04am

Tue Aug 4, 2:04am

Tue Aug 4, 1:04am

Tue Aug 4, 12:04am

Mon Aug 3, 11:04pm

Mon Aug 3, 10:04pm

Mon Aug 3, 9:04pm

Mon Aug 3, 8:05pm

Mon Aug 3, 7:04pm

Mon Aug 3, 6:04pm

Mon Aug 3, 5:04pm

Mon Aug 3, 4:05pm

Mon Aug 3, 3:04pm

Mon Aug 3, 2:04pm

Mon Aug 3, 1:04pm

Mon Aug 3, 12:05pm

Mon Aug 3, 11:04am

Mon Aug 3, 10:04am

Mon Aug 3, 9:05am

Mon Aug 3, 8:04am

Mon Aug 3, 7:04am

Mon Aug 3, 6:04am

Mon Aug 3, 5:04am

Mon Aug 3, 4:04am

Mon Aug 3, 3:04am

Mon Aug 3, 2:04am

Mon Aug 3, 1:04am

Mon Aug 3, 12:05am

Sun Aug 2, 11:04pm

Sun Aug 2, 10:04pm

Sun Aug 2, 9:04pm

Sun Aug 2, 8:04pm

Sun Aug 2, 7:04pm

Sun Aug 2, 6:04pm

Sun Aug 2, 5:04pm

Sun Aug 2, 4:05pm

Sun Aug 2, 3:04pm

Sun Aug 2, 2:05pm

Sun Aug 2, 1:04pm

Sun Aug 2, 12:04pm

Sun Aug 2, 11:04am

Sun Aug 2, 10:04am

Sun Aug 2, 9:05am

Sun Aug 2, 8:05am

Sun Aug 2, 7:04am

Sun Aug 2, 6:04am

Sun Aug 2, 5:04am

Sun Aug 2, 4:05am

Sun Aug 2, 3:04am

Sun Aug 2, 2:04am

Sun Aug 2, 1:04am

Sun Aug 2, 12:05am

Sat Aug 1, 11:04pm

Sat Aug 1, 10:04pm

Sat Aug 1, 9:04pm

Sat Aug 1, 8:05pm

Sat Aug 1, 7:04pm

Sat Aug 1, 6:04pm

Sat Aug 1, 5:05pm

Sat Aug 1, 4:05pm

Sat Aug 1, 3:04pm

Sat Aug 1, 2:04pm

Sat Aug 1, 1:04pm

Sat Aug 1, 12:04pm

Sat Aug 1, 11:05am

Sat Aug 1, 10:05am

Sat Aug 1, 9:04am

Sat Aug 1, 8:04am

Sat Aug 1, 7:04am

Sat Aug 1, 6:04am

Sat Aug 1, 5:04am

Sat Aug 1, 4:05am

Sat Aug 1, 3:04am

Sat Aug 1, 2:04am

Sat Aug 1, 1:04am

Sat Aug 1, 12:05am

Fri Jul 31, 11:05pm

Fri Jul 31, 10:04pm

Fri Jul 31, 9:04pm

Fri Jul 31, 8:05pm

Fri Jul 31, 7:05pm

Fri Jul 31, 6:04pm

Fri Jul 31, 5:04pm

Fri Jul 31, 4:05pm

Fri Jul 31, 3:04pm

Fri Jul 31, 2:05pm

Fri Jul 31, 1:04pm

Fri Jul 31, 12:04pm

Meta data:

ID: 5a68ba40-1e03-4317-a660-1f40997d5784
Link: https://api.weather.gov/products/5a68ba40-1e03-4317-a660-1f40997d5784